Three Rivers, MI

1:27 AM EDT on June 26, 2017 (GMT -0400)
Three Rivers Municipal-Haines

Weather History for KHAI - January, 2012

Change the Weather History Date:

Tuesday, January 17, 2012

  Actual Average Record
Temperature  
Mean Temperature 37 °F -  
Max Temperature 46 °F 31 °F 64 °F (1952)
Min Temperature 28 °F 15 °F -17 °F (1982)
Degree Days  
Heating Degree Days 28    
Moisture  
Dew Point 36 °F    
Average Humidity 98    
Maximum Humidity 100    
Minimum Humidity 86    
Precipitation  
Precipitation 0.00 in - - ()
Sea Level Pressure  
Sea Level Pressure 29.66 in    
Wind  
Wind Speed 5 mph (West)    
Max Wind Speed 24 mph    
Max Gust Speed 31 mph    
Visibility 2 miles    
Events Fog , Rain , Snow    
Averages and records for this station are not official NWS values.
T = Trace of Precipitation, MM = Missing Value Source: NWS Daily Summary

Daily Weather History Graph

Daily Weather History Graph

Search for Another Location

Airport or City:

Trip Planner

Search our weather history database for the weather conditions in past years. The results will help you decide how hot, cold, wet, or windy it might be!

Date:

Astronomy

Jan. 17, 2012 Rise Set
Actual Time 8:07 AM EST 5:37 PM EST
Civil Twilight 7:36 AM EST 6:08 PM EST
Nautical Twilight 7:02 AM EST 6:43 PM EST
Astronomical Twilight 6:28 AM EST 7:16 PM EST
Moon 2:25 AM EST (1/17) 12:31 PM EST (1/17)
Length of Visible Light 10h 32m
Length of Day
9h 30m
Waning Crescent, 35% of the Moon is Illuminated
Jan 17
Waning Crescent
Jan 23
New
Jan 30
First Quarter
Feb 7
Full
Feb 14
Last Quarter

Hourly Weather History & Observations

Time (EST) Temp. Windchill Dew Point Humidity Pressure Visibility Wind Dir Wind Speed Gust Speed Precip Events Conditions
12:14 AM 41.0 °F 38.0 °F 41.0 °F 100% 29.71 in 0.2 mi SE 4.6 mph - N/A Fog Fog
12:35 AM 39.2 °F - 39.2 °F 100% 29.72 in 0.2 mi Calm Calm - N/A   Overcast
12:55 AM 39.2 °F - 39.2 °F 100% 29.70 in 0.2 mi Calm Calm - N/A   Unknown
1:14 AM 41.0 °F - 41.0 °F 100% 29.69 in 0.2 mi Calm Calm - N/A   Unknown
1:35 AM 41.0 °F - 41.0 °F 100% 29.68 in 0.2 mi Calm Calm - N/A Rain Light Rain
1:55 AM 41.0 °F - 41.0 °F 100% 29.68 in 0.2 mi Calm Calm - N/A Fog Fog
2:15 AM 39.2 °F - 39.2 °F 100% 29.67 in 0.2 mi Calm Calm - N/A Rain Light Rain
2:35 AM 37.4 °F - 37.4 °F 100% 29.67 in 0.2 mi Calm Calm - N/A   Drizzle
2:54 AM 37.4 °F - 37.4 °F 100% 29.65 in 0.2 mi Calm Calm - N/A Rain Light Rain
3:15 AM 39.2 °F 37.0 °F 39.2 °F 100% 29.63 in 0.2 mi ESE 3.5 mph - N/A Fog Fog
3:34 AM 41.0 °F - 41.0 °F 100% 29.62 in 0.2 mi Calm Calm - N/A Rain Rain
3:55 AM 41.0 °F - 41.0 °F 100% 29.61 in 0.2 mi Calm Calm - N/A Rain Rain
4:15 AM 41.0 °F - 41.0 °F 100% 29.60 in 0.2 mi Calm Calm - N/A Rain Light Rain
4:34 AM 37.4 °F - 37.4 °F 100% 29.58 in 0.2 mi Calm Calm - N/A Rain Rain
5:15 AM 37.4 °F - 37.4 °F 100% 29.55 in 0.2 mi Calm Calm - N/A Fog Fog
5:34 AM 37.4 °F 34.9 °F 37.4 °F 100% 29.55 in 0.2 mi NW 3.5 mph - N/A Fog Fog
5:55 AM 39.2 °F - 39.2 °F 100% 29.55 in 0.2 mi Calm Calm - N/A Rain Rain
6:14 AM 37.4 °F - 37.4 °F 100% 29.54 in 0.2 mi Calm Calm - N/A Rain Light Rain
6:34 AM 37.4 °F - 37.4 °F 100% 29.54 in 0.2 mi Calm Calm - N/A Rain Rain
7:14 AM 41.0 °F - 41.0 °F 100% 29.54 in 0.5 mi Calm Calm - N/A Rain Rain
7:34 AM 39.2 °F - 39.2 °F 100% 29.53 in 0.5 mi Calm Calm - N/A Rain Light Rain
7:55 AM 39.2 °F - 39.2 °F 100% 29.52 in 0.2 mi Calm Calm - N/A   Unknown
8:14 AM 37.4 °F - 37.4 °F 100% 29.52 in 0.2 mi Calm Calm - N/A Rain Rain
8:35 AM 37.4 °F - 37.4 °F 100% 29.51 in 0.2 mi Calm Calm - N/A Snow Light Snow
8:55 AM 39.2 °F - 39.2 °F 100% 29.50 in 0.2 mi Calm Calm - N/A Fog Fog
9:14 AM 39.2 °F - 39.2 °F 100% 29.49 in 0.2 mi Calm Calm - N/A Fog Fog
9:35 AM 41.0 °F 39.0 °F 41.0 °F 100% 29.50 in 0.2 mi SSW 3.5 mph - N/A Fog Fog
9:55 AM 42.8 °F 40.1 °F 42.8 °F 100% 29.49 in 0.2 mi SSW 4.6 mph - N/A Fog Fog
10:14 AM 44.6 °F 42.2 °F 44.6 °F 100% 29.48 in 0.2 mi South 4.6 mph - N/A Fog Fog
10:35 AM 44.6 °F 41.4 °F 44.6 °F 100% 29.47 in 0.2 mi SSW 5.8 mph - N/A Fog Fog
10:55 AM 44.6 °F 41.4 °F 44.6 °F 100% 29.46 in 0.2 mi South 5.8 mph - N/A   Unknown
11:14 AM 44.6 °F 42.2 °F 44.6 °F 100% 29.46 in 0.5 mi SW 4.6 mph - N/A   Unknown
11:35 AM 46.4 °F 40.7 °F 46.4 °F 100% 29.46 in 1.8 mi WSW 12.7 mph 18.4 mph N/A Rain Light Rain
11:54 AM 42.8 °F 35.8 °F 42.8 °F 100% 29.46 in 2.5 mi WSW 13.8 mph 24.2 mph N/A   Overcast
12:15 PM 41.0 °F 32.5 °F 41.0 °F 100% 29.47 in 1.8 mi West 17.3 mph 25.3 mph N/A   Light Drizzle
12:35 PM 37.4 °F 26.6 °F 37.4 °F 100% 29.49 in 5.0 mi WNW 21.9 mph 29.9 mph N/A   Overcast
12:54 PM 35.6 °F 26.2 °F 35.6 °F 100% 29.51 in 10.0 mi WNW 15.0 mph 25.3 mph N/A   Overcast
1:15 PM 33.8 °F 22.2 °F 33.8 °F 100% 29.54 in 10.0 mi WNW 20.7 mph 25.3 mph N/A   Overcast
1:34 PM 33.8 °F 21.3 °F 33.8 °F 100% 29.55 in 7.0 mi WNW 24.2 mph 27.6 mph N/A   Overcast
1:55 PM 33.8 °F 22.5 °F 33.8 °F 100% 29.58 in 4.0 mi WNW 19.6 mph 29.9 mph N/A Rain Light Rain
2:55 PM 32.0 °F 21.2 °F 32.0 °F 100% 29.65 in 7.0 mi WNW 16.1 mph 29.9 mph N/A Snow Light Snow
3:14 PM 32.0 °F 22.5 °F 32.0 °F 100% 29.68 in 5.0 mi NW 12.7 mph 23.0 mph N/A Snow Light Snow
3:35 PM 32.0 °F 21.6 °F 32.0 °F 100% 29.70 in 5.0 mi NW 15.0 mph 26.5 mph N/A Snow Light Snow
3:55 PM 32.0 °F 20.8 °F 32.0 °F 100% 29.72 in 5.0 mi WNW 17.3 mph 28.8 mph N/A Snow Light Snow
4:14 PM 32.0 °F 21.2 °F 32.0 °F 100% 29.74 in 4.0 mi NW 16.1 mph 21.9 mph N/A Snow Light Snow
4:35 PM 32.0 °F 21.6 °F 32.0 °F 100% 29.77 in 3.0 mi WNW 15.0 mph 25.3 mph N/A Snow Light Snow
4:55 PM 32.0 °F 20.1 °F 32.0 °F 100% 29.79 in 1.8 mi WNW 19.6 mph 24.2 mph N/A Snow Light Snow
5:14 PM 32.0 °F 20.8 °F 30.2 °F 93% 29.80 in 1.8 mi NW 17.3 mph 25.3 mph N/A Snow Light Snow
5:35 PM 32.0 °F 21.6 °F 30.2 °F 93% 29.83 in 2.5 mi WNW 15.0 mph 27.6 mph N/A Snow Light Snow
5:55 PM 30.2 °F 18.1 °F 30.2 °F 100% 29.85 in 3.0 mi WNW 18.4 mph 24.2 mph N/A Snow Light Snow
6:14 PM 30.2 °F 19.8 °F 28.4 °F 93% 29.86 in 3.0 mi WNW 13.8 mph 19.6 mph N/A Snow Light Snow
6:35 PM 30.2 °F 19.3 °F 28.4 °F 93% 29.88 in 5.0 mi WNW 15.0 mph 20.7 mph N/A Snow Light Snow
6:54 PM 30.2 °F 18.5 °F 28.4 °F 93% 29.90 in 2.5 mi WNW 17.3 mph 24.2 mph N/A Snow Light Snow
7:15 PM 30.2 °F 18.5 °F 28.4 °F 93% 29.91 in 2.5 mi WNW 17.3 mph 25.3 mph N/A Snow Light Snow
7:35 PM 28.4 °F 16.2 °F 28.4 °F 100% 29.93 in 2.5 mi WNW 17.3 mph 28.8 mph N/A Snow Light Snow
7:55 PM 28.4 °F 15.8 °F 26.6 °F 93% 29.94 in 5.0 mi WNW 18.4 mph 31.1 mph N/A Snow Light Snow
8:15 PM 28.4 °F 17.5 °F 26.6 °F 93% 29.96 in 5.0 mi WNW 13.8 mph 20.7 mph N/A Snow Light Snow
8:54 PM 28.4 °F 17.5 °F 26.6 °F 93% 29.99 in 5.0 mi WNW 13.8 mph 29.9 mph N/A Snow Light Snow
9:15 PM 28.4 °F 17.5 °F 24.8 °F 86% 30.01 in 7.0 mi WNW 13.8 mph 25.3 mph N/A Snow Light Snow
9:35 PM 28.4 °F 17.5 °F 24.8 °F 86% 30.02 in 2.5 mi NW 13.8 mph - N/A Snow Light Snow
9:54 PM 26.6 °F 16.2 °F 24.8 °F 93% 30.03 in 3.0 mi NW 11.5 mph 21.9 mph N/A Snow Light Snow
10:15 PM 26.6 °F 15.2 °F 24.8 °F 93% 30.04 in 3.0 mi NW 13.8 mph 18.4 mph N/A Snow Light Snow
10:34 PM 26.6 °F 16.8 °F 24.8 °F 93% 30.04 in 1.5 mi NW 10.4 mph 16.1 mph N/A Snow Light Snow
10:55 PM 26.6 °F 14.7 °F 24.8 °F 93% 30.06 in 3.0 mi WNW 15.0 mph 19.6 mph N/A Snow Light Snow
11:15 PM 26.6 °F 15.2 °F 23.0 °F 86% 30.07 in 3.0 mi WNW 13.8 mph 20.7 mph N/A Snow Light Snow
11:34 PM 26.6 °F 15.2 °F 23.0 °F 86% 30.08 in 4.0 mi WNW 13.8 mph 25.3 mph N/A Snow Light Snow
11:55 PM 26.6 °F 15.7 °F 23.0 °F 86% 30.10 in 5.0 mi WNW 12.7 mph 16.1 mph N/A Snow Light Snow